sat.trackr.live / text

‹ back to catalog

STARLINK-3747

NORAD 52306 · 2022-041AX

PAYLOAD ACTIVE UNKNOWN

§ Identity

Operator
Country
US
Launch date
2022-04-21
Launch site
AFETR
Launch vehicle
Mass (kg)
RCS (m²)

Purposes: comms

External: N2YO · Heavens-Above · Gunter

§ Orbital elements

Epoch: 2026-09-20T01:40:07.256352Z

Period
93.85 min
Inclination
53.1596°
Eccentricity
0.0001320
Mean motion
15.34390686 rev/d
Perigee alt
461.8 km
Apogee alt
463.6 km
Semi-major
6,840.9 km
B*
1.0714e-5
RAAN
283.3857°
Arg perigee
67.3854°
Mean anomaly
292.7288°
Rev number
24,538

§ Raw data

STARLINK-37471 52306U 22041AX  26263.06952843 -.00000014  00000+0  10714-4 0  99932 52306  53.1596 283.3857 0001320  67.3854 292.7288 15.34390686245387

JSON: /api/v1/satellites/52306 · /tle

For live sub-satellite position, see the globe view (requires WebGL).

§ Visibility from observer

Set your observer location to see the next 7 days of passes ≥ 10°. The values pass through the URL so the page stays shareable.

No JS? Fill the form by hand. The geolocation button needs JavaScript.